This demonstration page uses our WeatherBlox Daily Observations layout. Learn more.

Left ArrowRight Arrow

34.02893, -84.19858

Hourly Observations for March 14, 2022

Temp ( °F °C ) Dew Point ( °F °C ) Humidity (%) Winds ( mph kmh ) Pressure ( in mb ) Visibility ( mi km ) Precip ( " mm )
12:53 am 00:53 Clear 35 1.7 26 -3.3 70 70 Calm 30.44 1031 10 16 0.00 0.00
1:53 am 01:53 Clear 34 1.1 27 -2.8 76 76 Calm 30.40 1030 10 16 0.00 0.00
2:53 am 02:53 Clear 33 0.6 28 -2.2 82 82 Calm 30.40 1030 10 16 0.00 0.00
3:53 am 03:53 Clear 33 0.6 28 -2.2 82 82 Calm 30.38 1029 10 16 0.00 0.00
4:53 am 04:53 Clear 32 0 28 -2.2 85 85 Calm 30.37 1029 10 16 0.00 0.00
5:53 am 05:53 Clear 31 -0.6 27 -2.8 85 85 NNE 3 6 30.37 1029 10 16 0.00 0.00
6:53 am 06:53 Clear 31 -0.6 27 -2.8 85 85 Calm 30.40 1029 10 16 0.00 0.00
7:53 am 07:53 Sunny 34 1.1 30 -1.1 85 85 Calm 30.44 1031 10 16 0.00 0.00
8:53 am 08:53 Sunny 37 2.8 32 0 82 82 Calm 30.45 1031 10 16 0.00 0.00
9:53 am 09:53 Sunny 46 7.8 30 -1.1 54 54 Calm 30.48 1032 10 16 0.00 0.00
10:53 am 10:53 Sunny 51 10.6 22 -5.6 32 32 SW 5 7 30.48 1032 10 16 0.00 0.00
11:53 am 11:53 Sunny 55 12.8 21 -6.1 26 26 S 7 11 30.46 1032 10 16 0.00 0.00
12:53 pm 12:53 Sunny 59 15 21 -6.1 23 23 SE 7 11 30.44 1031 10 16 0.00 0.00
1:53 pm 13:53 Sunny 60 15.6 23 -5 24 24 S 7 11 30.41 1030 10 16 0.00 0.00
2:53 pm 14:53 Sunny 62 16.7 24 -4.4 23 23 SSE 7 11 30.38 1029 10 16 0.00 0.00
3:53 pm 15:53 Sunny 63 17.2 26 -3.3 25 25 S 10 17 30.36 1028 10 16 0.00 0.00
4:53 pm 16:53 Sunny 63 17.2 23 -5 22 22 S 12 19 30.34 1028 10 16 0.00 0.00
5:53 pm 17:53 Sunny 63 17.2 20 -6.7 19 19 VRB 7 11 30.33 1027 10 16 0.00 0.00
6:53 pm 18:53 Sunny 61 16.1 21 -6.1 21 21 undefined N/A 30.34 1027 10 16 0.00 0.00
7:53 pm 19:53 Clear 58 14.4 21 -6.1 24 24 SE 3 6 30.35 1028 10 16 0.00 0.00
8:53 pm 20:53 Clear 51 10.6 24 -4.4 35 35 Calm 30.37 1028 10 16 0.00 0.00
9:53 pm 21:53 Clear 51 10.6 24 -4.4 35 35 Calm 30.36 1028 10 16 0.00 0.00
10:53 pm 22:53 Clear 50 10 25 -3.9 38 38 Calm 30.36 1028 10 16 0.00 0.00
11:53 pm 23:53 Clear 46 7.8 29 -1.7 51 51 Calm 30.36 1028 10 16 0.00 0.00

Powered by AerisWeather